Home > Time Zones > World Clock > Weather > Iran > Rasht > Past weeks

Flag for Iran Weather past 2 weeks in Rasht, Iran

Now
73 °F

Sunny.


Feels Like: 73 °F
Forecast: 68 / 88 °F
Wind: No wind

Location: Rasht Airport

Current Time: Jul 23, 2014 at 1:13:47 AM

Latest Report: Jul 22, 2014 at 9:30 PM


Visibility: 10 mi

Pressure: 29.80 "Hg

Humidity: 83%

Dew point: 68 °F

Location of RashtLocation

Historic Weather in Rasht — Graph

°F

Rasht temperature yesterday

Maximum temperature yesterday: 86 °F (at 11:30 AM)
Minimum temperature yesterday: 75 °F (at 12:30 AM)
Average temperature yesterday: 81 °F

Past Weeks' High & Low Weather Summary

 TemperatureHumidityPressure
High91 °F (Jul 18, 1:30 PM)94% (Jul 8, 1:30 AM)29.89 "Hg (Jul 8, 1:30 AM)
Low72 °F (Jul 10, 4:30 AM)43% (Jul 15, 4:30 PM)29.56 "Hg (Jul 18, 8:30 PM)
Average81 °F69%29.75 "Hg
* Reported Jul 7 8:30 PM — Jul 22 8:30 PM, Rasht, Weather by CustomWeather, © 2014

Note: Actual official high and low records may vary slightly from our data, if they occured in-between our weather recording intervals... More about our weather records

Advertising

Rasht weather history for previous 24 hours

 ConditionsComfort  
Time TempWeatherWind HumidityBarometerVisibility
8:30 PM
Jul 22
77 °FSunny.No wind69%29.77 "Hg10 mi
8:00 PM81 °FSunny.No wind58%29.77 "Hg10 mi
7:30 PM81 °FSunny.5 mph58%29.77 "Hg10 mi
7:00 PM82 °FSunny.7 mph51%29.77 "Hg10 mi
6:30 PM82 °FSunny.7 mph51%29.77 "Hg10 mi
6:00 PM84 °FSunny.7 mph51%29.77 "Hg10 mi
5:30 PM84 °FSunny.7 mph51%29.77 "Hg10 mi
5:00 PM84 °FPassing clouds.7 mph51%29.77 "HgN/A
4:30 PM84 °FPassing clouds.7 mph51%29.77 "HgN/A
4:00 PM86 °FPassing clouds.12 mph52%29.77 "HgN/A
3:30 PM86 °FPassing clouds.12 mph52%29.77 "HgN/A
3:00 PM86 °FPassing clouds.9 mph52%29.77 "HgN/A
2:30 PM86 °FPassing clouds.9 mph52%29.77 "HgN/A
1:30 PM86 °FPartly sunny.9 mph55%29.77 "HgN/A
12:30 PM86 °FScattered clouds.7 mph55%29.77 "HgN/A
11:30 AM86 °FPassing clouds.7 mph59%29.77 "HgN/A
10:30 AM82 °FScattered clouds.5 mph66%29.77 "HgN/A
9:30 AM82 °FPassing clouds.5 mph66%29.77 "HgN/A
8:30 AM79 °FScattered clouds.5 mph70%29.77 "Hg5 mi
8:00 AM77 °FScattered clouds.7 mph74%29.74 "Hg4 mi
7:30 AM77 °FPassing clouds.5 mph74%29.74 "Hg4 mi
7:00 AM75 °FPartly cloudy.2 mph78%29.74 "Hg4 mi
6:30 AM75 °FPartly cloudy.7 mph78%29.74 "Hg4 mi
5:30 AM75 °FClear.5 mph78%29.74 "Hg10 mi
4:30 AM75 °FClear.5 mph78%29.74 "Hg10 mi
3:30 AM75 °FClear.2 mph83%29.68 "Hg10 mi
2:30 AM75 °FClear.7 mph83%29.68 "Hg10 mi
1:30 AM75 °FClear.5 mph83%29.68 "Hg10 mi
Weather by CustomWeather, © 2014

See weather overviewHow to use our weather pages